PCSAT (NO-44)

Last updated on Wed Sep 09 2026 00:03:15 GMT+0000 (Coordinated Universal Time)

1 26931U 01043C 26251.55393068 .00000051 00000+0 50021-4 0 9991 2 26931 67.0519 28.6405 0005723 271.8804 88.1642 14.31981921302387
UTC large
Height (km)
Speed (km/s)
/
Latitude / Longitude
Inclination (degrees)
Orbital Period (minutes)
Azimuth
Elevation
Range (km)
Doppler Factor

Next 0 passes for location: London (51.5072 / 0.1276)

No passes found over London.
PCSAT (NO-44)